N70EU KSJC-KRNO

Flight info

Callsign N70EU
Flight time 0h 48m
Altitude 17000
Route SUNOL1 SAC V392 FMG
Aircraft B350/L-SBGRW/S

Departure

Time 2026-05-07 02:14
Airport Norman Y. Mineta San Jose International Airport (KSJC)

Arrival

Time 2026-05-07 03:02
Airport Reno Tahoe International Airport (KRNO)
Time Latitude Longitude Altitude Speed Heading
2026-05-07 01:29 37.36274 -121.93554 55 ft 0 kts 232°
2026-05-07 02:06 37.36256 -121.93562 54 ft 9 kts 159°
2026-05-07 02:07 37.36182 -121.93498 54 ft 16 kts 140°
2026-05-07 02:07 37.36159 -121.93311 55 ft 13 kts 108°
2026-05-07 02:07 37.36082 -121.93211 56 ft 12 kts 139°
2026-05-07 02:08 37.36000 -121.93118 58 ft 18 kts 138°
2026-05-07 02:08 37.35890 -121.92994 59 ft 23 kts 139°
2026-05-07 02:08 37.35777 -121.92871 60 ft 22 kts 137°
2026-05-07 02:08 37.35653 -121.92735 61 ft 18 kts 143°
2026-05-07 02:09 37.35647 -121.92634 62 ft 11 kts 52°
2026-05-07 02:09 37.35685 -121.92546 62 ft 11 kts 110°
2026-05-07 02:09 37.35627 -121.92469 63 ft 15 kts 139°
2026-05-07 02:09 37.35532 -121.92364 64 ft 20 kts 139°
2026-05-07 02:10 37.35412 -121.92231 65 ft 25 kts 137°
2026-05-07 02:10 37.35323 -121.92136 66 ft 10 kts 139°
2026-05-07 02:10 37.35255 -121.92059 66 ft 14 kts 138°
2026-05-07 02:10 37.35218 -121.92001 67 ft 5 kts 96°
2026-05-07 02:11 37.35218 -121.91989 67 ft 0 kts 80°
2026-05-07 02:12 37.35219 -121.91981 67 ft 5 kts 74°
2026-05-07 02:13 37.35248 -121.91933 67 ft 5 kts 38°
2026-05-07 02:13 37.35291 -121.91922 67 ft 9 kts 339°
2026-05-07 02:13 37.35307 -121.91935 67 ft 0 kts 317°
2026-05-07 02:13 37.35366 -121.92002 66 ft 48 kts 318°
2026-05-07 02:14 37.35844 -121.92527 151 ft 117 kts 319°
2026-05-07 02:14 37.36476 -121.93278 714 ft 135 kts 316°
2026-05-07 02:14 37.37217 -121.94124 1271 ft 153 kts 322°
2026-05-07 02:14 37.37947 -121.94971 2227 ft 142 kts 324°
2026-05-07 02:15 37.38726 -121.95740 2950 ft 147 kts 322°
2026-05-07 02:15 37.39453 -121.96670 3597 ft 156 kts 311°
2026-05-07 02:15 37.40360 -121.97373 4203 ft 161 kts 350°
2026-05-07 02:15 37.41466 -121.97157 4800 ft 170 kts 30°
2026-05-07 02:16 37.42337 -121.95978 4988 ft 204 kts 54°
2026-05-07 02:16 37.43160 -121.94374 5008 ft 235 kts 55°
2026-05-07 02:16 37.44103 -121.92535 5005 ft 258 kts 56°
2026-05-07 02:16 37.45090 -121.90612 4980 ft 261 kts 55°
2026-05-07 02:17 37.46258 -121.88953 4935 ft 254 kts 33°
2026-05-07 02:17 37.47880 -121.88192 4996 ft 243 kts 12°
2026-05-07 02:17 37.49345 -121.87544 5718 ft 207 kts 21°
2026-05-07 02:17 37.50595 -121.86865 6486 ft 186 kts 22°
2026-05-07 02:18 37.51722 -121.86221 7093 ft 175 kts 23°
2026-05-07 02:18 37.52813 -121.85586 7540 ft 172 kts 24°
2026-05-07 02:18 37.53899 -121.84951 7894 ft 176 kts 24°
2026-05-07 02:18 37.55029 -121.84287 8321 ft 181 kts 25°
2026-05-07 02:19 37.56170 -121.83616 8806 ft 182 kts 25°
2026-05-07 02:19 37.57318 -121.82941 9293 ft 181 kts 25°
2026-05-07 02:19 37.58453 -121.82272 9764 ft 181 kts 25°
2026-05-07 02:19 37.59604 -121.81594 10204 ft 182 kts 26°
2026-05-07 02:20 37.60764 -121.80973 10620 ft 183 kts 17°
2026-05-07 02:20 37.62004 -121.80589 11025 ft 185 kts 15°
2026-05-07 02:20 37.63248 -121.80210 11422 ft 185 kts 15°
2026-05-07 02:20 37.64520 -121.79823 11818 ft 186 kts 15°
2026-05-07 02:21 37.65780 -121.79439 12203 ft 187 kts 15°
2026-05-07 02:21 37.67030 -121.79057 12572 ft 187 kts 15°
2026-05-07 02:21 37.68298 -121.78670 12932 ft 187 kts 15°
2026-05-07 02:21 37.69579 -121.78278 13278 ft 188 kts 15°
2026-05-07 02:22 37.70849 -121.77889 13614 ft 188 kts 15°
2026-05-07 02:22 37.72126 -121.77499 13945 ft 188 kts 15°
2026-05-07 02:22 37.73391 -121.77112 14279 ft 188 kts 15°
2026-05-07 02:22 37.74673 -121.76719 14626 ft 188 kts 15°
2026-05-07 02:23 37.75938 -121.76332 14950 ft 188 kts 15°
2026-05-07 02:23 37.77201 -121.75945 15267 ft 187 kts 15°
2026-05-07 02:23 37.78478 -121.75554 15584 ft 187 kts 15°
2026-05-07 02:23 37.79747 -121.75165 15883 ft 187 kts 15°
2026-05-07 02:24 37.81025 -121.74773 16254 ft 193 kts 15°
2026-05-07 02:24 37.82320 -121.74377 16740 ft 192 kts 15°
2026-05-07 02:24 37.83663 -121.73965 16944 ft 208 kts 15°
2026-05-07 02:24 37.85156 -121.73507 16968 ft 229 kts 15°
2026-05-07 02:25 37.86763 -121.73014 16966 ft 248 kts 15°
2026-05-07 02:25 37.88492 -121.72483 16965 ft 264 kts 14°
2026-05-07 02:25 37.90324 -121.71920 16985 ft 277 kts 14°
2026-05-07 02:25 37.92244 -121.71330 16979 ft 288 kts 14°
2026-05-07 02:26 37.94233 -121.70717 16966 ft 296 kts 14°
2026-05-07 02:26 37.96269 -121.70091 16967 ft 303 kts 14°
2026-05-07 02:26 37.98343 -121.69451 16956 ft 309 kts 14°
2026-05-07 02:26 38.00451 -121.68801 16944 ft 313 kts 14°
2026-05-07 02:27 38.02564 -121.68150 16933 ft 316 kts 14°
2026-05-07 02:27 38.04724 -121.67483 16940 ft 318 kts 14°
2026-05-07 02:27 38.06871 -121.66820 16939 ft 320 kts 14°
2026-05-07 02:27 38.09064 -121.66142 16940 ft 321 kts 14°
2026-05-07 02:28 38.11228 -121.65473 16941 ft 322 kts 14°
2026-05-07 02:28 38.13411 -121.64797 16960 ft 322 kts 14°
2026-05-07 02:28 38.15567 -121.64130 16980 ft 322 kts 14°
2026-05-07 02:28 38.17762 -121.63451 16991 ft 322 kts 14°
2026-05-07 02:29 38.19951 -121.62772 17007 ft 322 kts 14°
2026-05-07 02:29 38.22120 -121.62099 17001 ft 320 kts 14°
2026-05-07 02:29 38.24276 -121.61430 16924 ft 319 kts 14°
2026-05-07 02:29 38.26447 -121.60756 16926 ft 316 kts 14°
2026-05-07 02:30 38.28560 -121.60099 16923 ft 313 kts 14°
2026-05-07 02:30 38.30669 -121.59444 16917 ft 312 kts 14°
2026-05-07 02:30 38.32801 -121.58780 16927 ft 310 kts 14°
2026-05-07 02:30 38.34875 -121.58134 16922 ft 309 kts 14°
2026-05-07 02:31 38.36974 -121.57481 16903 ft 308 kts 14°
2026-05-07 02:31 38.39046 -121.56834 16920 ft 307 kts 14°
2026-05-07 02:31 38.41124 -121.56187 16931 ft 306 kts 14°
2026-05-07 02:31 38.43212 -121.55534 16935 ft 306 kts 14°
2026-05-07 02:32 38.45138 -121.54421 16927 ft 305 kts 35°
2026-05-07 02:32 38.46831 -121.52748 16930 ft 305 kts 38°
2026-05-07 02:32 38.48497 -121.51083 16938 ft 305 kts 38°
2026-05-07 02:32 38.50167 -121.49418 16938 ft 305 kts 38°
2026-05-07 02:33 38.51857 -121.47765 16937 ft 305 kts 36°
2026-05-07 02:33 38.53576 -121.46149 16933 ft 305 kts 36°
2026-05-07 02:33 38.55286 -121.44557 16934 ft 305 kts 36°
2026-05-07 02:33 38.57026 -121.42951 16938 ft 305 kts 36°
2026-05-07 02:34 38.58756 -121.41370 16937 ft 306 kts 35°
2026-05-07 02:34 38.60503 -121.39787 16935 ft 306 kts 35°
2026-05-07 02:34 38.62242 -121.38226 16936 ft 306 kts 34°
2026-05-07 02:34 38.63982 -121.36678 16938 ft 306 kts 34°
2026-05-07 02:35 38.65738 -121.35131 16935 ft 306 kts 34°
2026-05-07 02:35 38.67491 -121.33600 16937 ft 306 kts 34°
2026-05-07 02:35 38.69267 -121.32064 16938 ft 306 kts 34°
2026-05-07 02:35 38.71032 -121.30551 16938 ft 306 kts 34°
2026-05-07 02:36 38.72811 -121.29041 16940 ft 306 kts 34°
2026-05-07 02:36 38.74596 -121.27540 16945 ft 306 kts 33°
2026-05-07 02:36 38.76378 -121.26056 16944 ft 306 kts 33°
2026-05-07 02:36 38.78170 -121.24579 16944 ft 307 kts 33°
2026-05-07 02:37 38.79989 -121.23094 16948 ft 307 kts 33°
2026-05-07 02:37 38.81783 -121.21644 16950 ft 307 kts 32°
2026-05-07 02:37 38.83608 -121.20182 16946 ft 307 kts 32°
2026-05-07 02:37 38.85421 -121.18742 16956 ft 307 kts 32°
2026-05-07 02:38 38.87262 -121.17288 16957 ft 307 kts 32°
2026-05-07 02:38 38.88804 -121.15412 16940 ft 308 kts 55°
2026-05-07 02:38 38.89715 -121.12970 16972 ft 308 kts 67°
2026-05-07 02:38 38.90587 -121.10443 16948 ft 308 kts 59°
2026-05-07 02:39 38.91872 -121.08249 16970 ft 307 kts 47°
2026-05-07 02:39 38.93399 -121.06325 16967 ft 307 kts 42°
2026-05-07 02:39 38.95016 -121.04520 16969 ft 307 kts 40°
2026-05-07 02:39 38.96684 -121.02759 16967 ft 307 kts 39°
2026-05-07 02:40 38.98349 -121.01041 16970 ft 307 kts 38°
2026-05-07 02:40 39.00016 -120.99339 16976 ft 307 kts 38°
2026-05-07 02:40 39.01704 -120.97621 16975 ft 307 kts 38°
2026-05-07 02:40 39.03373 -120.95925 16972 ft 307 kts 38°
2026-05-07 02:41 39.05063 -120.94208 16982 ft 307 kts 38°
2026-05-07 02:41 39.06737 -120.92506 16990 ft 306 kts 38°
2026-05-07 02:41 39.08415 -120.90801 16992 ft 307 kts 38°
2026-05-07 02:41 39.10096 -120.89091 16999 ft 306 kts 38°
2026-05-07 02:42 39.11805 -120.87352 17012 ft 306 kts 38°
2026-05-07 02:42 39.13493 -120.85632 17022 ft 305 kts 38°
2026-05-07 02:42 39.15156 -120.83937 17044 ft 305 kts 38°
2026-05-07 02:42 39.16824 -120.82237 17051 ft 306 kts 38°
2026-05-07 02:43 39.18510 -120.80515 17063 ft 306 kts 38°
2026-05-07 02:43 39.20171 -120.78820 17070 ft 306 kts 38°
2026-05-07 02:43 39.21835 -120.77120 17074 ft 306 kts 38°
2026-05-07 02:43 39.23518 -120.75399 17088 ft 306 kts 38°
2026-05-07 02:44 39.25183 -120.73695 17094 ft 306 kts 38°
2026-05-07 02:44 39.26862 -120.71977 17096 ft 307 kts 38°
2026-05-07 02:44 39.28532 -120.70267 17103 ft 307 kts 38°
2026-05-07 02:44 39.30213 -120.68544 17112 ft 307 kts 38°
2026-05-07 02:45 39.31888 -120.66827 17098 ft 307 kts 38°
2026-05-07 02:45 39.33558 -120.65112 17101 ft 307 kts 38°
2026-05-07 02:45 39.35226 -120.63399 17103 ft 307 kts 38°
2026-05-07 02:45 39.36908 -120.61671 17109 ft 307 kts 38°
2026-05-07 02:46 39.38576 -120.59953 17111 ft 307 kts 38°
2026-05-07 02:46 39.40248 -120.58229 17119 ft 307 kts 38°
2026-05-07 02:46 39.41929 -120.56503 17126 ft 307 kts 38°
2026-05-07 02:46 39.43559 -120.54732 17121 ft 308 kts 45°
2026-05-07 02:47 39.44654 -120.52330 17144 ft 310 kts 69°
2026-05-07 02:47 39.45037 -120.49599 17154 ft 312 kts 83°
2026-05-07 02:47 39.45107 -120.46781 17146 ft 314 kts 88°
2026-05-07 02:47 39.45061 -120.43963 17138 ft 315 kts 89°
2026-05-07 02:48 39.44962 -120.41105 17139 ft 315 kts 90°
2026-05-07 02:48 39.44845 -120.38277 17140 ft 315 kts 91°
2026-05-07 02:48 39.44715 -120.35443 17143 ft 315 kts 91°
2026-05-07 02:48 39.44579 -120.32622 17143 ft 315 kts 91°
2026-05-07 02:49 39.44442 -120.29797 17147 ft 315 kts 91°
2026-05-07 02:49 39.44303 -120.26959 17149 ft 315 kts 91°
2026-05-07 02:49 39.44164 -120.24126 17136 ft 315 kts 91°
2026-05-07 02:49 39.44024 -120.21304 17145 ft 314 kts 91°
2026-05-07 02:50 39.43885 -120.18489 17155 ft 314 kts 91°
2026-05-07 02:50 39.43887 -120.15669 17106 ft 312 kts 78°
2026-05-07 02:50 39.44369 -120.12976 17160 ft 309 kts 74°
2026-05-07 02:50 39.44879 -120.10262 17148 ft 310 kts 74°
2026-05-07 02:51 39.45387 -120.07542 17143 ft 310 kts 74°
2026-05-07 02:51 39.45892 -120.04835 17136 ft 311 kts 74°
2026-05-07 02:51 39.46402 -120.02095 17135 ft 311 kts 74°
2026-05-07 02:51 39.46904 -119.99396 17128 ft 309 kts 75°
2026-05-07 02:52 39.47390 -119.96767 16987 ft 291 kts 74°
2026-05-07 02:52 39.47850 -119.94288 16541 ft 277 kts 74°
2026-05-07 02:52 39.48285 -119.91939 16146 ft 264 kts 74°
2026-05-07 02:52 39.48704 -119.89674 15755 ft 252 kts 74°
2026-05-07 02:53 39.49106 -119.87500 15367 ft 242 kts 73°
2026-05-07 02:53 39.49490 -119.85418 14989 ft 234 kts 73°
2026-05-07 02:53 39.49859 -119.83419 14613 ft 226 kts 73°
2026-05-07 02:53 39.50219 -119.81463 14233 ft 220 kts 73°
2026-05-07 02:54 39.50567 -119.79575 13863 ft 214 kts 73°
2026-05-07 02:54 39.50909 -119.77718 13488 ft 210 kts 73°
2026-05-07 02:54 39.51240 -119.75912 13118 ft 206 kts 73°
2026-05-07 02:54 39.51574 -119.74097 12754 ft 208 kts 73°
2026-05-07 02:55 39.51917 -119.72241 12421 ft 218 kts 73°
2026-05-07 02:55 39.52275 -119.70282 12079 ft 227 kts 73°
2026-05-07 02:55 39.52313 -119.68203 11734 ft 238 kts 102°
2026-05-07 02:55 39.51481 -119.66328 11403 ft 248 kts 133°
2026-05-07 02:56 39.49989 -119.65221 11060 ft 247 kts 165°
2026-05-07 02:56 39.48323 -119.65232 10714 ft 239 kts 193°
2026-05-07 02:56 39.46694 -119.65523 10366 ft 234 kts 184°
2026-05-07 02:56 39.45078 -119.65607 10017 ft 231 kts 181°
2026-05-07 02:57 39.43478 -119.65633 9665 ft 229 kts 180°
2026-05-07 02:57 39.41894 -119.65741 9316 ft 225 kts 192°
2026-05-07 02:57 39.40437 -119.66445 8969 ft 221 kts 211°
2026-05-07 02:57 39.39256 -119.67651 8618 ft 216 kts 229°
2026-05-07 02:58 39.38411 -119.69218 8268 ft 212 kts 245°
2026-05-07 02:58 39.37950 -119.71011 7919 ft 207 kts 262°
2026-05-07 02:58 39.37904 -119.72758 7567 ft 182 kts 279°
2026-05-07 02:58 39.38242 -119.74182 7532 ft 155 kts 297°
2026-05-07 02:59 39.38885 -119.75288 7314 ft 156 kts 318°
2026-05-07 02:59 39.39783 -119.76031 6858 ft 154 kts 337°
2026-05-07 02:59 39.40791 -119.76320 6464 ft 143 kts 350°
2026-05-07 02:59 39.41741 -119.76447 6078 ft 135 kts 353°
2026-05-07 03:00 39.42657 -119.76537 5689 ft 132 kts 354°
2026-05-07 03:00 39.43544 -119.76588 5453 ft 125 kts 355°
2026-05-07 03:00 39.44425 -119.76650 5254 ft 126 kts 354°
2026-05-07 03:00 39.45294 -119.76678 5135 ft 123 kts 356°
2026-05-07 03:01 39.46148 -119.76688 5039 ft 123 kts 358°
2026-05-07 03:01 39.47011 -119.76686 4921 ft 123 kts 356°
2026-05-07 03:01 39.47859 -119.76693 4726 ft 124 kts 356°
2026-05-07 03:01 39.48730 -119.76681 4524 ft 122 kts 357°
2026-05-07 03:02 39.49528 -119.76672 4414 ft 103 kts 358°
2026-05-07 03:02 39.50128 -119.76681 4414 ft 63 kts
2026-05-07 03:02 39.50281 -119.76659 4415 ft 8 kts 61°
2026-05-07 03:02 39.50277 -119.76577 4414 ft 8 kts 155°
2026-05-07 03:03 39.50249 -119.76572 4414 ft 0 kts 180°
2026-05-07 03:04 39.50228 -119.76572 4414 ft 5 kts 179°
2026-05-07 03:04 39.50172 -119.76572 4413 ft 10 kts 179°
2026-05-07 03:05 39.50098 -119.76565 4412 ft 5 kts 146°
2026-05-07 03:05 39.50097 -119.76525 4412 ft 7 kts 22°
2026-05-07 03:05 39.50148 -119.76508 4412 ft 4 kts 67°
2026-05-07 03:05 39.50149 -119.76477 4412 ft 0 kts 88°